TimeEDT,TemperatureF,Dew PointF,Humidity,Sea Level PressureIn,VisibilityMPH,Wind Direction,Wind SpeedMPH,Gust SpeedMPH,PrecipitationIn,Events,Conditions,WindDirDegrees,DateUTC
12:16 AM,62.6,55.4,77,29.40,10.0,SSW,12.7,27.6,N/A,,Overcast,210,2012-10-15 04:16:00
12:36 AM,60.8,55.4,82,29.41,10.0,WSW,11.5,26.5,N/A,Rain,Light Rain,240,2012-10-15 04:36:00
1:16 AM,59.0,51.8,77,29.44,10.0,SW,11.5,27.6,N/A,,Overcast,230,2012-10-15 05:16:00
1:56 AM,53.6,48.2,82,29.50,10.0,West,11.5,25.3,N/A,,Overcast,280,2012-10-15 05:56:00
2:16 AM,53.6,48.2,82,29.51,10.0,West,12.7,27.6,N/A,,Overcast,270,2012-10-15 06:16:00
2:36 AM,51.8,44.6,76,29.52,10.0,West,15.0,26.5,N/A,,Overcast,270,2012-10-15 06:36:00
2:56 AM,51.8,46.4,82,29.53,10.0,West,13.8,19.6,N/A,,Overcast,270,2012-10-15 06:56:00
3:16 AM,51.8,44.6,76,29.54,10.0,West,15.0,20.7,N/A,,Overcast,270,2012-10-15 07:16:00
3:36 AM,51.8,44.6,76,29.55,10.0,West,11.5,19.6,N/A,,Overcast,270,2012-10-15 07:36:00
3:56 AM,51.8,44.6,76,29.55,10.0,West,9.2,17.3,N/A,,Overcast,260,2012-10-15 07:56:00
4:16 AM,50.0,44.6,82,29.56,10.0,WSW,12.7,24.2,N/A,,Overcast,250,2012-10-15 08:16:00
4:36 AM,51.8,42.8,71,29.58,10.0,West,9.2,24.2,N/A,,Overcast,270,2012-10-15 08:36:00
4:56 AM,50.0,42.8,76,29.58,10.0,WSW,13.8,23.0,N/A,,Overcast,240,2012-10-15 08:56:00
5:16 AM,50.0,42.8,76,29.60,10.0,West,11.5,24.2,N/A,,Overcast,260,2012-10-15 09:16:00
5:36 AM,50.0,41.0,71,29.60,10.0,West,9.2,18.4,N/A,,Overcast,260,2012-10-15 09:36:00
5:56 AM,50.0,41.0,71,29.61,10.0,West,6.9,21.9,N/A,,Overcast,260,2012-10-15 09:56:00
6:16 AM,50.0,41.0,71,29.62,10.0,WSW,8.1,-,N/A,,Overcast,250,2012-10-15 10:16:00
6:36 AM,50.0,41.0,71,29.63,10.0,WSW,11.5,23.0,N/A,,Overcast,250,2012-10-15 10:36:00
6:56 AM,50.0,41.0,71,29.64,10.0,WSW,12.7,19.6,N/A,,Overcast,250,2012-10-15 10:56:00
7:16 AM,48.2,41.0,76,29.64,10.0,West,9.2,18.4,N/A,,Overcast,260,2012-10-15 11:16:00
7:36 AM,48.2,41.0,76,29.65,10.0,West,11.5,18.4,N/A,,Overcast,260,2012-10-15 11:36:00
7:56 AM,48.2,39.2,71,29.66,10.0,West,5.8,25.3,N/A,,Overcast,260,2012-10-15 11:56:00
8:16 AM,48.2,39.2,71,29.67,10.0,WSW,10.4,19.6,N/A,,Overcast,250,2012-10-15 12:16:00
8:36 AM,48.2,39.2,71,29.67,10.0,WSW,8.1,20.7,N/A,,Overcast,240,2012-10-15 12:36:00
8:56 AM,48.2,39.2,71,29.68,10.0,WSW,8.1,17.3,N/A,,Overcast,250,2012-10-15 12:56:00
9:16 AM,48.2,39.2,71,29.68,10.0,West,11.5,19.6,N/A,,Overcast,260,2012-10-15 13:16:00
9:36 AM,48.2,39.2,71,29.69,10.0,West,11.5,23.0,N/A,,Overcast,270,2012-10-15 13:36:00
9:56 AM,48.2,39.2,71,29.69,10.0,West,10.4,17.3,N/A,,Overcast,270,2012-10-15 13:56:00
10:16 AM,48.2,39.2,71,29.70,10.0,West,12.7,19.6,N/A,,Overcast,280,2012-10-15 14:16:00
10:36 AM,48.2,39.2,71,29.71,10.0,West,9.2,21.9,N/A,,Overcast,270,2012-10-15 14:36:00
10:56 AM,48.2,39.2,71,29.71,10.0,West,11.5,23.0,N/A,,Overcast,270,2012-10-15 14:56:00
11:16 AM,48.2,41.0,76,29.71,10.0,West,6.9,18.4,N/A,,Overcast,280,2012-10-15 15:16:00
11:36 AM,50.0,41.0,71,29.72,10.0,West,8.1,17.3,N/A,,Overcast,270,2012-10-15 15:36:00
11:56 AM,50.0,39.2,66,29.73,10.0,West,15.0,23.0,N/A,,Overcast,280,2012-10-15 15:56:00
12:16 PM,50.0,39.2,66,29.74,10.0,West,10.4,19.6,N/A,,Overcast,280,2012-10-15 16:16:00
12:36 PM,50.0,39.2,66,29.74,10.0,WNW,10.4,20.7,N/A,,Overcast,290,2012-10-15 16:36:00
12:56 PM,50.0,41.0,71,29.74,10.0,West,11.5,16.1,N/A,,Overcast,270,2012-10-15 16:56:00
1:16 PM,50.0,41.0,71,29.74,10.0,WNW,9.2,19.6,N/A,,Overcast,290,2012-10-15 17:16:00
1:36 PM,50.0,39.2,66,29.75,10.0,West,12.7,18.4,N/A,,Overcast,280,2012-10-15 17:36:00
1:56 PM,50.0,39.2,66,29.76,10.0,West,9.2,17.3,N/A,,Overcast,280,2012-10-15 17:56:00
2:16 PM,50.0,39.2,66,29.76,10.0,WNW,11.5,17.3,N/A,,Overcast,300,2012-10-15 18:16:00
2:36 PM,50.0,41.0,71,29.77,10.0,WNW,18.4,24.2,N/A,,Overcast,300,2012-10-15 18:36:00
2:56 PM,50.0,41.0,71,29.77,10.0,NW,11.5,18.4,N/A,,Light Drizzle,320,2012-10-15 18:56:00
3:16 PM,50.0,41.0,71,29.77,10.0,WNW,10.4,-,N/A,Rain,Rain,300,2012-10-15 19:16:00
3:36 PM,50.0,41.0,71,29.78,10.0,WNW,10.4,18.4,N/A,,Light Drizzle,290,2012-10-15 19:36:00
3:56 PM,50.0,42.8,76,29.79,10.0,NW,12.7,16.1,N/A,,Drizzle,310,2012-10-15 19:56:00
4:16 PM,48.2,41.0,76,29.79,10.0,NW,12.7,21.9,N/A,,Drizzle,310,2012-10-15 20:16:00
4:36 PM,48.2,41.0,76,29.80,10.0,NW,11.5,18.4,N/A,,Light Drizzle,310,2012-10-15 20:36:00
4:56 PM,50.0,41.0,71,29.80,10.0,WNW,9.2,-,N/A,,Overcast,300,2012-10-15 20:56:00
5:16 PM,50.0,41.0,71,29.81,10.0,WNW,6.9,-,N/A,,Overcast,290,2012-10-15 21:16:00
5:36 PM,50.0,41.0,71,29.82,10.0,WNW,9.2,18.4,N/A,,Overcast,290,2012-10-15 21:36:00
5:56 PM,48.2,41.0,76,29.83,10.0,WNW,12.7,16.1,N/A,,Overcast,300,2012-10-15 21:56:00
6:16 PM,48.2,41.0,76,29.84,10.0,West,10.4,-,N/A,,Overcast,270,2012-10-15 22:16:00
6:36 PM,46.4,41.0,81,29.85,7.0,WNW,6.9,-,N/A,Rain,Rain,290,2012-10-15 22:36:00
6:56 PM,46.4,42.8,87,29.85,10.0,Calm,Calm,-,N/A,,Overcast,0,2012-10-15 22:56:00
7:16 PM,46.4,41.0,81,29.86,7.0,WNW,6.9,-,N/A,Rain,Light Rain,290,2012-10-15 23:16:00
7:36 PM,44.6,41.0,87,29.86,10.0,WNW,9.2,16.1,N/A,,Overcast,300,2012-10-15 23:36:00
7:56 PM,44.6,41.0,87,29.86,10.0,West,5.8,-,N/A,,Overcast,280,2012-10-15 23:56:00
8:16 PM,44.6,41.0,87,29.87,10.0,WNW,5.8,-,N/A,,Overcast,290,2012-10-16 00:16:00
8:36 PM,44.6,41.0,87,29.88,10.0,West,4.6,-,N/A,,Overcast,280,2012-10-16 00:36:00
8:56 PM,44.6,39.2,81,29.88,10.0,WNW,4.6,-,N/A,,Overcast,290,2012-10-16 00:56:00
9:16 PM,44.6,39.2,81,29.89,10.0,NW,6.9,-,N/A,,Overcast,310,2012-10-16 01:16:00
9:36 PM,46.4,39.2,76,29.89,10.0,WNW,8.1,-,N/A,,Overcast,300,2012-10-16 01:36:00
9:56 PM,46.4,39.2,76,29.90,10.0,West,3.5,-,N/A,,Overcast,270,2012-10-16 01:56:00
10:16 PM,46.4,39.2,76,29.90,10.0,WNW,5.8,-,N/A,,Overcast,300,2012-10-16 02:16:00
10:36 PM,44.6,39.2,81,29.90,10.0,NW,6.9,-,N/A,,Overcast,310,2012-10-16 02:36:00
10:56 PM,46.4,39.2,76,29.91,10.0,WNW,5.8,-,N/A,,Overcast,300,2012-10-16 02:56:00
11:16 PM,44.6,39.2,81,29.91,10.0,NW,5.8,-,N/A,,Overcast,310,2012-10-16 03:16:00
11:36 PM,44.6,37.4,76,29.90,10.0,WNW,5.8,-,N/A,,Overcast,300,2012-10-16 03:36:00
11:56 PM,44.6,37.4,76,29.91,10.0,WNW,4.6,-,N/A,,Overcast,300,2012-10-16 03:56:00